星链-1041 (STARLINK-1041 )

导读

STARLINK-1041是美国SpaceX公司星链(Starlink)计划中的一颗互联网通信卫星,于2019年11月11日发射升空,是星链早期部署的卫星之一。它运行在近地轨道,旨在为全球提供高速低延迟宽带互联网服务,尤其为偏远地区、海洋和空中用户提供连接。作为星链星座组网的组成部分,它助力SpaceX构建全球卫星互联网网络,推动太空通信技术发展,目前仍在其轨道执行通信任务。

基本信息
目录编号:
44746
目录名称:
STARLINK-1041
国际标识:
2019-074AK
轨道中心:
EARTH
卫星名称:
星链-1041
卫星全名:
星链-1041 (STARLINK-1041 )
卫星状态:
已陨落 最后检测时间 2024-09-07
发射日期:
2019-11-11 UTC
国别 :
美国 (US)
星等 :
--
轨道信息
数据来源 国际轨道数据
星历时间: 2024-09-08T04:19:35+0800
轨道信息已过期644天
半长轴: 6559.79km
偏心率: 0.0013845
轨道倾角: 53.025°
近地点辐角 202.281°
升交点赤经 109.061°
平近点角 241.231°
近地点: 172.572km
远地点: 190.738km
周期: 88.124分钟
每日圈数: 16.340595
详细信息
固有亮度:
5
最大亮度:
2.5
卫星平台:
Starlink V1.0
覆盖范围:
全球
运营商:
太空探索技术公司
运营商所在国:
美国
制造商(研发单位):
太空探索技术公司
制造商所在国:
美国
使用方式:
暂无
卫星简介
星链(Starlink)计划是由太空探索技术公司(SpaceX)提出的一个巨型低轨卫星互联网星座项目,计划在2019年至2024年间在太空搭建由约1.2万颗卫星组成的“星链”网络,其中1584颗将部署在地球上空550千米处的近地轨道,并从2020年开始工作。该卫星仍在工作。